Time,TemperatureF,DewpointF,PressureIn,WindDirection,WindDirectionDegrees,WindSpeedMPH,WindSpeedGustMPH,Humidity,HourlyPrecipIn,Conditions,Clouds,dailyrainin,SoftwareType,DateUTC
2013-05-08 00:02:00,57.0,57.0,30.05,East,100,3.0,-999.0,100,-99.99,,,-99.99,,2013-05-08 04:02:00,
2013-05-08 00:13:00,57.0,57.0,30.04,East,100,6.0,-999.0,100,-99.99,,,-99.99,,2013-05-08 04:13:00,
2013-05-08 00:23:00,57.0,57.0,30.03,East,80,6.0,-999.0,100,-99.99,,,-99.99,,2013-05-08 04:23:00,
2013-05-08 00:33:00,57.0,57.0,30.03,ENE,60,3.0,-999.0,100,-99.99,,,-99.99,,2013-05-08 04:33:00,
2013-05-08 00:43:00,57.0,57.0,30.03,ENE,60,6.0,-999.0,100,-99.99,,,-99.99,,2013-05-08 04:43:00,
2013-05-08 00:52:00,57.0,57.0,30.02,ESE,110,2.0,-999.0,100,-99.99,,,-99.99,,2013-05-08 04:52:00,
2013-05-08 01:02:00,57.0,57.0,30.02,ESE,110,2.0,-999.0,100,-99.99,,,-99.99,,2013-05-08 05:02:00,
2013-05-08 01:12:00,57.0,57.0,30.02,East,80,2.0,-999.0,100,-99.99,,,-99.99,,2013-05-08 05:12:00,
2013-05-08 01:22:00,57.0,57.0,30.02,ESE,110,1.0,-999.0,100,-99.99,,,-99.99,,2013-05-08 05:22:00,
2013-05-08 01:32:00,55.0,55.0,30.02,SW,230,1.0,-999.0,100,-99.99,,,-99.99,,2013-05-08 05:32:00,
2013-05-08 01:42:00,55.0,55.0,30.02,North,0,0.0,-999.0,100,-99.99,,,-99.99,,2013-05-08 05:42:00,
2013-05-08 01:52:00,55.0,55.0,30.01,ESE,110,7.0,-999.0,100,-99.99,,,-99.99,,2013-05-08 05:52:00,
2013-05-08 02:02:00,55.0,55.0,30.01,ESE,110,7.0,-999.0,100,-99.99,,,-99.99,,2013-05-08 06:02:00,
2013-05-08 02:12:00,55.0,55.0,30.01,East,80,2.0,-999.0,100,-99.99,,,-99.99,,2013-05-08 06:12:00,
2013-05-08 02:21:00,55.0,55.0,30.00,NE,50,2.0,-999.0,100,-99.99,,,-99.99,,2013-05-08 06:21:00,
2013-05-08 02:32:00,55.0,55.0,30.00,North,0,0.0,-999.0,100,-99.99,,,-99.99,,2013-05-08 06:32:00,
2013-05-08 02:42:00,55.0,55.0,30.00,North,0,0.0,-999.0,100,-99.99,,,-99.99,,2013-05-08 06:42:00,
2013-05-08 02:52:00,55.0,55.0,29.99,North,0,0.0,-999.0,100,-99.99,,,-99.99,,2013-05-08 06:52:00,
2013-05-08 03:02:00,55.0,55.0,29.99,North,0,0.0,-999.0,100,-99.99,,,-99.99,,2013-05-08 07:02:00,
2013-05-08 03:11:00,55.0,55.0,29.99,West,260,2.0,-999.0,100,-99.99,,,-99.99,,2013-05-08 07:11:00,
2013-05-08 03:21:00,57.0,57.0,29.99,West,280,2.0,-999.0,100,-99.99,,,-99.99,,2013-05-08 07:21:00,
2013-05-08 03:32:00,55.0,55.0,29.99,WNW,300,1.0,-999.0,100,-99.99,,,-99.99,,2013-05-08 07:32:00,
2013-05-08 03:42:00,55.0,55.0,29.99,North,0,0.0,-999.0,100,-99.99,,,-99.99,,2013-05-08 07:42:00,
2013-05-08 03:52:00,55.0,55.0,29.99,North,0,0.0,-999.0,100,-99.99,,,-99.99,,2013-05-08 07:52:00,
2013-05-08 04:02:00,55.0,55.0,29.99,North,0,0.0,-999.0,100,-99.99,,,-99.99,,2013-05-08 08:02:00,
2013-05-08 04:12:00,57.0,57.0,29.98,North,0,0.0,-999.0,100,-99.99,,,-99.99,,2013-05-08 08:12:00,
2013-05-08 04:21:00,57.0,57.0,29.98,NNW,340,2.0,-999.0,100,-99.99,,,-99.99,,2013-05-08 08:21:00,
2013-05-08 04:32:00,57.0,57.0,29.97,North,350,2.0,-999.0,100,-99.99,,,-99.99,,2013-05-08 08:32:00,
2013-05-08 04:42:00,57.0,57.0,29.97,NNW,330,2.0,-999.0,100,-99.99,,,-99.99,,2013-05-08 08:42:00,
2013-05-08 04:51:00,57.0,57.0,29.98,NNW,340,2.0,-999.0,100,-99.99,,,-99.99,,2013-05-08 08:51:00,
2013-05-08 05:02:00,57.0,57.0,29.98,NNW,340,2.0,-999.0,100,-99.99,,,-99.99,,2013-05-08 09:02:00,
2013-05-08 05:11:00,57.0,57.0,29.97,NNE,30,2.0,-999.0,100,-99.99,,,-99.99,,2013-05-08 09:11:00,
2013-05-08 05:21:00,57.0,57.0,29.97,East,80,2.0,-999.0,100,-99.99,,,-99.99,,2013-05-08 09:21:00,
2013-05-08 05:32:00,57.0,57.0,29.98,ENE,60,5.0,-999.0,100,-99.99,,,-99.99,,2013-05-08 09:32:00,
2013-05-08 05:42:00,57.0,57.0,29.98,ENE,60,6.0,-999.0,100,-99.99,,,-99.99,,2013-05-08 09:42:00,
2013-05-08 05:52:00,57.0,57.0,29.98,East,80,5.0,-999.0,100,-99.99,,,-99.99,,2013-05-08 09:52:00,
2013-05-08 06:02:00,57.0,57.0,29.98,East,80,5.0,-999.0,100,-99.99,,,-99.99,,2013-05-08 10:02:00,
2013-05-08 06:12:00,57.0,57.0,29.98,East,80,3.0,-999.0,100,-99.99,,,-99.99,,2013-05-08 10:12:00,
2013-05-08 06:22:00,57.0,57.0,29.99,ENE,70,6.0,-999.0,100,-99.99,,,-99.99,,2013-05-08 10:22:00,
2013-05-08 06:33:00,57.0,57.0,29.99,ENE,60,2.0,-999.0,100,-99.99,,,-99.99,,2013-05-08 10:33:00,
2013-05-08 06:42:00,57.0,57.0,29.99,ENE,70,2.0,-999.0,100,-99.99,,,-99.99,,2013-05-08 10:42:00,
2013-05-08 06:52:00,57.0,57.0,30.00,East,90,2.0,-999.0,100,-99.99,,,-99.99,,2013-05-08 10:52:00,
2013-05-08 07:02:00,57.0,57.0,30.00,East,90,2.0,-999.0,100,-99.99,,,-99.99,,2013-05-08 11:02:00,
2013-05-08 07:11:00,57.0,57.0,29.99,NE,50,5.0,-999.0,100,-99.99,,,-99.99,,2013-05-08 11:11:00,
2013-05-08 07:22:00,59.0,59.0,29.99,East,80,5.0,-999.0,100,-99.99,,,-99.99,,2013-05-08 11:22:00,
2013-05-08 07:32:00,57.0,57.0,29.99,ENE,60,3.0,-999.0,100,-99.99,,,-99.99,,2013-05-08 11:32:00,
2013-05-08 07:42:00,57.0,57.0,29.99,NE,50,5.0,-999.0,100,-99.99,,,-99.99,,2013-05-08 11:42:00,
2013-05-08 07:52:00,57.0,57.0,29.99,East,80,3.0,-999.0,100,-99.99,,,-99.99,,2013-05-08 11:52:00,
2013-05-08 08:02:00,57.0,57.0,29.99,East,80,3.0,-999.0,100,-99.99,,,-99.99,,2013-05-08 12:02:00,
2013-05-08 08:11:00,57.0,57.0,30.00,East,80,1.0,-999.0,100,-99.99,,,-99.99,,2013-05-08 12:11:00,
2013-05-08 08:21:00,57.0,57.0,30.00,North,0,0.0,-999.0,100,-99.99,,,-99.99,,2013-05-08 12:21:00,
2013-05-08 08:32:00,57.0,57.0,29.99,NNE,30,2.0,-999.0,100,-99.99,,,-99.99,,2013-05-08 12:32:00,
2013-05-08 08:41:00,61.0,61.0,29.99,NE,50,5.0,-999.0,100,-99.99,,,-99.99,,2013-05-08 12:41:00,
2013-05-08 08:51:00,59.0,59.0,29.98,East,80,2.0,-999.0,100,-99.99,,,-99.99,,2013-05-08 12:51:00,
2013-05-08 09:01:00,59.0,59.0,29.98,East,80,2.0,-999.0,100,-99.99,,,-99.99,,2013-05-08 13:01:00,
2013-05-08 09:11:00,59.0,59.0,29.98,NE,40,6.0,-999.0,100,-99.99,,,-99.99,,2013-05-08 13:11:00,
2013-05-08 09:21:00,61.0,61.0,29.99,NE,50,1.0,-999.0,100,-99.99,,,-99.99,,2013-05-08 13:21:00,
2013-05-08 09:32:00,61.0,61.0,30.00,ESE,120,3.0,-999.0,100,-99.99,,,-99.99,,2013-05-08 13:32:00,
2013-05-08 09:42:00,61.0,61.0,30.00,East,90,5.0,-999.0,100,-99.99,,,-99.99,,2013-05-08 13:42:00,
2013-05-08 09:52:00,61.0,61.0,30.01,ESE,110,5.0,-999.0,100,-99.99,,,-99.99,,2013-05-08 13:52:00,
2013-05-08 10:02:00,61.0,61.0,30.01,ESE,110,5.0,-999.0,100,-99.99,,,-99.99,,2013-05-08 14:02:00,
2013-05-08 10:11:00,61.0,61.0,30.01,South,180,3.0,-999.0,100,-99.99,,,-99.99,,2013-05-08 14:11:00,
2013-05-08 10:21:00,63.0,63.0,30.02,South,190,5.0,-999.0,100,-99.99,,,-99.99,,2013-05-08 14:21:00,
2013-05-08 10:32:00,61.0,61.0,30.02,SSE,160,6.0,-999.0,100,-99.99,,,-99.99,,2013-05-08 14:32:00,
2013-05-08 10:42:00,61.0,61.0,30.03,South,180,5.0,-999.0,100,-99.99,,,-99.99,,2013-05-08 14:42:00,
2013-05-08 10:52:00,61.0,61.0,30.03,SSE,160,6.0,-999.0,100,-99.99,,,-99.99,,2013-05-08 14:52:00,
2013-05-08 11:02:00,61.0,61.0,30.03,SSE,160,6.0,-999.0,100,-99.99,,,-99.99,,2013-05-08 15:02:00,
2013-05-08 11:11:00,61.0,61.0,30.03,South,170,6.0,-999.0,100,-99.99,,,-99.99,,2013-05-08 15:11:00,
2013-05-08 11:21:00,63.0,63.0,30.03,South,190,6.0,-999.0,100,-99.99,,,-99.99,,2013-05-08 15:21:00,
2013-05-08 11:33:00,64.0,64.0,30.03,SW,220,7.0,-999.0,100,-99.99,,,-99.99,,2013-05-08 15:33:00,
2013-05-08 11:42:00,64.0,64.0,30.03,SW,230,7.0,-999.0,100,-99.99,,,-99.99,,2013-05-08 15:42:00,
2013-05-08 11:52:00,64.0,64.0,30.03,WSW,240,3.0,-999.0,100,-99.99,,,-99.99,,2013-05-08 15:52:00,
2013-05-08 12:03:00,64.0,64.0,30.03,WSW,240,3.0,-999.0,100,-99.99,,,-99.99,,2013-05-08 16:03:00,
2013-05-08 12:12:00,68.0,63.0,30.02,WSW,250,7.0,-999.0,82,-99.99,,,-99.99,,2013-05-08 16:12:00,
2013-05-08 12:23:00,70.0,61.0,30.02,WSW,250,3.0,-999.0,73,-99.99,,,-99.99,,2013-05-08 16:23:00,
2013-05-08 12:33:00,68.0,63.0,30.01,WSW,250,7.0,-999.0,82,-99.99,,,-99.99,,2013-05-08 16:33:00,
2013-05-08 12:42:00,70.0,61.0,30.01,West,280,6.0,-999.0,73,-99.99,,,-99.99,,2013-05-08 16:42:00,
2013-05-08 12:52:00,72.0,57.0,30.01,SW,230,7.0,-999.0,60,-99.99,,,-99.99,,2013-05-08 16:52:00,
2013-05-08 13:02:00,72.0,57.0,30.01,SW,230,7.0,-999.0,60,-99.99,,,-99.99,,2013-05-08 17:02:00,
2013-05-08 13:12:00,72.0,57.0,30.01,SSW,200,8.0,-999.0,60,-99.99,,,-99.99,,2013-05-08 17:12:00,
2013-05-08 13:22:00,70.0,59.0,30.01,SSW,200,13.0,-999.0,68,-99.99,,,-99.99,,2013-05-08 17:22:00,
2013-05-08 13:32:00,70.0,59.0,30.01,SSW,200,13.0,-999.0,68,-99.99,,,-99.99,,2013-05-08 17:32:00,
2013-05-08 13:41:00,70.0,59.0,30.01,SSW,200,13.0,-999.0,68,-99.99,,,-99.99,,2013-05-08 17:41:00,
2013-05-08 13:52:00,66.0,55.0,30.01,South,180,9.0,-999.0,68,-99.99,,,-99.99,,2013-05-08 17:52:00,
2013-05-08 14:02:00,66.0,55.0,30.01,South,180,9.0,-999.0,68,-99.99,,,-99.99,,2013-05-08 18:02:00,
2013-05-08 14:12:00,66.0,54.0,30.01,South,190,9.0,-999.0,63,-99.99,,,-99.99,,2013-05-08 18:12:00,
2013-05-08 14:21:00,66.0,54.0,30.00,SSW,200,8.0,-999.0,63,-99.99,,,-99.99,,2013-05-08 18:21:00,
2013-05-08 14:32:00,66.0,54.0,30.00,SW,220,8.0,-999.0,63,-99.99,,,-99.99,,2013-05-08 18:32:00,
2013-05-08 14:42:00,70.0,54.0,30.00,SSW,200,8.0,-999.0,56,-99.99,,,-99.99,,2013-05-08 18:42:00,
2013-05-08 14:52:00,68.0,52.0,29.99,SSE,150,6.0,-999.0,56,-99.99,,,-99.99,,2013-05-08 18:52:00,
2013-05-08 15:01:00,68.0,52.0,29.99,SSE,150,6.0,-999.0,56,-99.99,,,-99.99,,2013-05-08 19:01:00,
2013-05-08 15:11:00,70.0,54.0,29.98,SSE,160,7.0,-999.0,56,-99.99,,,-99.99,,2013-05-08 19:11:00,
2013-05-08 15:22:00,72.0,55.0,29.98,South,170,8.0,-999.0,56,-99.99,,,-99.99,,2013-05-08 19:22:00,
2013-05-08 15:32:00,72.0,55.0,29.98,SSW,200,12.0,-999.0,56,-99.99,,,-99.99,,2013-05-08 19:32:00,
2013-05-08 15:42:00,72.0,55.0,29.98,SSW,200,8.0,16.0,56,-99.99,,,-99.99,,2013-05-08 19:42:00,
2013-05-08 15:52:00,70.0,55.0,29.98,South,170,7.0,-999.0,60,-99.99,,,-99.99,,2013-05-08 19:52:00,
2013-05-08 16:02:00,70.0,55.0,29.98,South,170,7.0,-999.0,60,-99.99,,,-99.99,,2013-05-08 20:02:00,
2013-05-08 16:11:00,70.0,55.0,29.98,South,170,12.0,16.0,60,-99.99,,,-99.99,,2013-05-08 20:11:00,
2013-05-08 16:22:00,68.0,54.0,29.98,SSW,200,13.0,-999.0,59,-99.99,,,-99.99,,2013-05-08 20:22:00,
2013-05-08 16:32:00,68.0,54.0,29.99,South,180,9.0,-999.0,59,-99.99,,,-99.99,,2013-05-08 20:32:00,
2013-05-08 16:42:00,68.0,54.0,29.98,South,170,13.0,16.0,59,-99.99,,,-99.99,,2013-05-08 20:42:00,
2013-05-08 16:52:00,66.0,54.0,29.98,South,190,10.0,-999.0,63,-99.99,,,-99.99,,2013-05-08 20:52:00,
2013-05-08 17:01:00,66.0,54.0,29.98,South,190,10.0,-999.0,63,-99.99,,,-99.99,,2013-05-08 21:01:00,
2013-05-08 17:12:00,66.0,54.0,29.98,SSW,200,8.0,-999.0,63,-99.99,,,-99.99,,2013-05-08 21:12:00,
2013-05-08 17:21:00,68.0,54.0,29.98,South,190,8.0,-999.0,59,-99.99,,,-99.99,,2013-05-08 21:21:00,
2013-05-08 17:33:00,68.0,54.0,29.98,SSE,160,7.0,-999.0,59,-99.99,,,-99.99,,2013-05-08 21:33:00,
2013-05-08 17:43:00,68.0,54.0,29.98,SSW,200,8.0,-999.0,59,-99.99,,,-99.99,,2013-05-08 21:43:00,
2013-05-08 17:52:00,66.0,54.0,29.98,South,170,8.0,-999.0,63,-99.99,,,-99.99,,2013-05-08 21:52:00,
2013-05-08 18:03:00,66.0,54.0,29.98,South,170,8.0,-999.0,63,-99.99,,,-99.99,,2013-05-08 22:03:00,
2013-05-08 18:12:00,66.0,54.0,29.98,South,190,14.0,-999.0,63,-99.99,,,-99.99,,2013-05-08 22:12:00,
2013-05-08 18:22:00,66.0,54.0,29.98,SSE,160,12.0,-999.0,63,-99.99,,,-99.99,,2013-05-08 22:22:00,
2013-05-08 18:33:00,64.0,54.0,29.98,South,170,10.0,-999.0,67,-99.99,,,-99.99,,2013-05-08 22:33:00,
2013-05-08 18:42:00,64.0,54.0,29.97,SSE,150,8.0,-999.0,67,-99.99,,,-99.99,,2013-05-08 22:42:00,
2013-05-08 18:52:00,64.0,54.0,29.98,South,170,6.0,-999.0,67,-99.99,,,-99.99,,2013-05-08 22:52:00,
2013-05-08 19:01:00,64.0,54.0,29.98,South,170,6.0,-999.0,67,-99.99,,,-99.99,,2013-05-08 23:01:00,
2013-05-08 19:11:00,63.0,54.0,29.99,SSE,160,2.0,-999.0,72,-99.99,,,-99.99,,2013-05-08 23:11:00,
2013-05-08 19:22:00,61.0,55.0,29.99,South,190,10.0,-999.0,82,-99.99,,,-99.99,,2013-05-08 23:22:00,
2013-05-08 19:32:00,59.0,55.0,29.99,South,170,6.0,-999.0,87,-99.99,,,-99.99,,2013-05-08 23:32:00,
2013-05-08 19:42:00,61.0,55.0,29.99,South,180,5.0,-999.0,82,-99.99,,,-99.99,,2013-05-08 23:42:00,
2013-05-08 19:52:00,59.0,55.0,29.99,SSW,210,7.0,-999.0,87,-99.99,,,-99.99,,2013-05-08 23:52:00,
2013-05-08 20:02:00,59.0,55.0,29.99,SSW,210,7.0,-999.0,87,-99.99,,,-99.99,,2013-05-09 00:02:00,
2013-05-08 20:12:00,57.0,55.0,30.00,South,180,5.0,-999.0,93,-99.99,,,-99.99,,2013-05-09 00:12:00,
2013-05-08 20:21:00,57.0,57.0,30.00,South,190,3.0,-999.0,100,-99.99,,,-99.99,,2013-05-09 00:21:00,
2013-05-08 20:32:00,57.0,57.0,30.00,South,170,3.0,-999.0,100,-99.99,,,-99.99,,2013-05-09 00:32:00,
2013-05-08 20:42:00,57.0,57.0,30.00,SSE,160,3.0,-999.0,100,-99.99,,,-99.99,,2013-05-09 00:42:00,
2013-05-08 20:52:00,57.0,57.0,30.01,South,170,5.0,-999.0,100,-99.99,,,-99.99,,2013-05-09 00:52:00,
2013-05-08 21:01:00,57.0,57.0,30.01,South,170,5.0,-999.0,100,-99.99,,,-99.99,,2013-05-09 01:01:00,
2013-05-08 21:12:00,57.0,57.0,30.01,SSE,160,2.0,-999.0,100,-99.99,,,-99.99,,2013-05-09 01:12:00,
2013-05-08 21:22:00,57.0,57.0,30.01,South,170,5.0,-999.0,100,-99.99,,,-99.99,,2013-05-09 01:22:00,
2013-05-08 21:32:00,57.0,57.0,30.01,SSE,160,7.0,-999.0,100,-99.99,,,-99.99,,2013-05-09 01:32:00,
2013-05-08 21:42:00,57.0,57.0,30.01,South,180,3.0,-999.0,100,-99.99,,,-99.99,,2013-05-09 01:42:00,
2013-05-08 21:52:00,57.0,57.0,30.01,South,180,3.0,-999.0,100,-99.99,,,-99.99,,2013-05-09 01:52:00,
2013-05-08 22:02:00,57.0,57.0,30.01,South,180,3.0,-999.0,100,-99.99,,,-99.99,,2013-05-09 02:02:00,
2013-05-08 22:11:00,57.0,57.0,30.02,South,190,5.0,-999.0,100,-99.99,,,-99.99,,2013-05-09 02:11:00,
2013-05-08 22:22:00,57.0,57.0,30.01,South,190,5.0,-999.0,100,-99.99,,,-99.99,,2013-05-09 02:22:00,
2013-05-08 22:32:00,57.0,57.0,30.01,SSW,200,5.0,-999.0,100,-99.99,,,-99.99,,2013-05-09 02:32:00,
2013-05-08 22:42:00,57.0,57.0,30.01,SSW,200,5.0,-999.0,100,-99.99,,,-99.99,,2013-05-09 02:42:00,
2013-05-08 22:52:00,57.0,57.0,30.01,SSW,200,5.0,-999.0,100,-99.99,,,-99.99,,2013-05-09 02:52:00,
2013-05-08 23:01:00,57.0,57.0,30.02,SSW,200,6.0,-999.0,100,-99.99,,,-99.99,,2013-05-09 03:01:00,
2013-05-08 23:11:00,57.0,57.0,30.02,SSW,200,3.0,-999.0,100,-99.99,,,-99.99,,2013-05-09 03:11:00,
2013-05-08 23:21:00,57.0,57.0,30.01,SSW,200,3.0,-999.0,100,-99.99,,,-99.99,,2013-05-09 03:21:00,
2013-05-08 23:33:00,57.0,57.0,30.01,SSW,210,2.0,-999.0,100,-99.99,,,-99.99,,2013-05-09 03:33:00,
2013-05-08 23:43:00,57.0,57.0,30.01,SW,230,3.0,-999.0,100,-99.99,,,-99.99,,2013-05-09 03:43:00,
2013-05-08 23:52:00,57.0,57.0,30.01,SW,230,2.0,-999.0,100,-99.99,,,-99.99,,2013-05-09 03:52:00,